This is the latest recevied weather packets stored in our database for station/object PA5MB-15. If no packets are shown the sender has not sent any weather packets the latest 10 day(s).
| Time | Temp. | Humidity | Pressure | Rain* | Wind** | Luminosity | Snow |
|---|---|---|---|---|---|---|---|
| 1777758634 | 14.44° C | 97% | 1014.4 hPa | 0.76 mm | - | 0 W/m² | - |
| 1777758357 | 14.44° C | 97% | 1014.5 hPa | 1.02 mm | - | 0 W/m² | - |
| 1777758036 | 14.44° C | 97% | 1014.6 hPa | 1.27 mm | - | 0 W/m² | - |
| 1777757734 | 14.44° C | 96% | 1014.6 hPa | 1.78 mm | - | 0 W/m² | - |
| 1777757433 | 14.44° C | 96% | 1014.6 hPa | 3.3 mm | - | 0 W/m² | - |
| 1777757132 | 14.44° C | 96% | 1014.5 hPa | 5.59 mm | - | 0 W/m² | - |
| 1777756832 | 14.44° C | 96% | 1014.5 hPa | 6.35 mm | - | 0 W/m² | - |
| 1777756534 | 14.44° C | 96% | 1014.6 hPa | 7.37 mm | - | 0 W/m² | - |
| 1777756222 | 14.44° C | 96% | 1014.8 hPa | 7.62 mm | - | 0 W/m² | - |
| 1777755928 | 14.44° C | 96% | 1015 hPa | 7.62 mm | - | 0 W/m² | - |
| 1777755635 | 14.44° C | 96% | 1015 hPa | 7.37 mm | - | 0 W/m² | - |
| 1777755334 | 14.44° C | 95% | 1014.8 hPa | 7.11 mm | - | 0 W/m² | - |
| 1777755034 | 14.44° C | 95% | 1015.3 hPa | 6.86 mm | - | 0 W/m² | - |
| 1777754733 | 15° C | 95% | 1015.8 hPa | 6.6 mm | - | 0 W/m² | - |
| 1777754432 | 15° C | 94% | 1016.2 hPa | 6.35 mm | - | 0 W/m² | - |
| 1777754134 | 15° C | 94% | 1016.4 hPa | 5.84 mm | - | 0 W/m² | - |
| 1777753832 | 15.56° C | 92% | 1016.8 hPa | 4.32 mm | - | 0 W/m² | - |
| 1777753532 | 16.11° C | 89% | 1016.7 hPa | 2.03 mm | - | 0 W/m² | - |
| 1777753235 | 17.22° C | 83% | 1016.2 hPa | 1.27 mm | - | 0 W/m² | - |
| 1777752933 | 18.33° C | 73% | 1015.9 hPa | 0.25 mm | - | 0 W/m² | - |
| 1777752645 | 18.33° C | 67% | 1015.5 hPa | 0 mm | - | 0 W/m² | - |
| 1777752323 | 18.89° C | 68% | 1014.7 hPa | 0 mm | - | 0 W/m² | - |
| 1777752027 | 18.89° C | 67% | 1014.6 hPa | 0 mm | - | 0 W/m² | - |
| 1777751734 | 18.89° C | 68% | 1014.6 hPa | 0 mm | - | 0 W/m² | - |
| 1777751434 | 18.89° C | 68% | 1014.5 hPa | 0 mm | - | 0 W/m² | - |
* Rain latest hour (hover to see other rain measurements)
** Current wind speed in m/s (hover to see current wind gust speed)